Date String (YYYY-MM-DD hh:mm:ss) UTC,Instrument flags,absolute air pressure of the measurement (hPa),sample flow rate (lpm),inlet stack bypass flow (lpm),air temperature of the measurement (°C),ambient temperature measured by the external sensor (°C),aerosol sample conditioner tube jacket temperature (°C),OPC LED temperature (°C),internal box temperature (°C),relative humidity of the measurement (%),span deviation,mass concentration of particles derived from Lorenz-Mie calculation of OPC scattering (μg/m³),mass concentration of particles derived from Lorenz-Mie calculation of OPC scattering (μg/m³),mass concentration of particles derived from Lorenz-Mie calculation of OPC scattering (μg/m³)
DateTimeUTC,F1_M11,P_M11,Q1_M11,Q2_M11,T1_M11,T2_M11,T3_M11,T4_M11,T5_M11,U1_M11,ZSPAN_M11,X2_M11,X0_M11,X1_M11
2024-03-23 07:00:00,SystemResetWarning,0826.2,4.98,000.00,024.0,023.2,000.0,032.6,025.9,16.3,0000.0,0004.90,0018.30,0003.24
2024-03-23 07:01:00,SystemResetWarning,0826.2,4.99,000.00,024.0,023.2,000.0,032.6,025.9,16.3,0000.0,0004.82,0019.23,0003.21
2024-03-23 07:02:00,SystemResetWarning,0826.2,5.01,000.00,024.0,023.2,000.0,032.6,025.9,16.4,0000.0,0004.75,0019.33,0003.20
2024-03-23 07:03:00,SystemResetWarning,0826.2,5.02,000.00,023.9,023.1,000.0,032.6,025.9,16.4,0000.0,0004.74,0018.83,0003.18
2024-03-23 07:04:00,SystemResetWarning,0826.2,4.99,000.00,023.9,023.1,000.0,032.6,025.9,16.4,0000.0,0004.64,0018.18,0003.15
2024-03-23 07:05:00,SystemResetWarning,0826.2,4.99,000.00,023.9,023.1,000.0,032.6,025.8,16.4,0000.0,0004.62,0018.71,0003.15
2024-03-23 07:06:00,SystemResetWarning,0826.2,5.00,000.00,023.9,023.1,000.0,032.6,025.8,16.4,0000.0,0004.59,0018.74,0003.14
2024-03-23 07:07:00,SystemResetWarning,0826.2,5.01,000.00,023.9,023.1,000.0,032.6,025.8,16.4,0000.0,0004.54,0018.31,0003.13
2024-03-23 07:08:00,SystemResetWarning,0826.1,5.00,000.00,023.9,023.1,000.0,032.6,025.8,16.4,0000.0,0004.49,0017.98,0003.11
2024-03-23 07:09:00,SystemResetWarning,0826.1,4.98,000.00,023.9,023.1,000.0,032.6,025.8,16.4,0000.0,0004.49,0018.24,0003.10
2024-03-23 07:10:00,SystemResetWarning,0826.1,4.99,000.00,023.9,023.1,000.0,032.6,025.7,16.4,0000.0,0004.54,0019.27,0003.11
2024-03-23 07:11:00,SystemResetWarning,0826.0,5.01,000.00,023.9,023.1,000.0,032.5,025.7,16.4,0000.0,0004.60,0019.55,0003.12
2024-03-23 07:12:00,SystemResetWarning,0826.0,5.01,000.00,023.9,023.1,000.0,032.5,025.7,16.5,0000.0,0004.64,0018.32,0003.14
2024-03-23 07:13:00,SystemResetWarning,0826.0,5.00,000.00,023.9,023.1,000.0,032.5,025.7,16.5,0000.0,0004.69,0017.98,0003.16
2024-03-23 07:14:00,SystemResetWarning,0826.0,5.00,000.00,023.9,023.0,000.0,032.5,025.7,16.5,0000.0,0004.71,0018.63,0003.17
2024-03-23 07:15:00,SystemResetWarning,0826.0,5.00,000.00,023.9,023.0,000.0,032.5,025.7,16.5,0000.0,0004.72,0018.18,0003.19
2024-03-23 07:16:00,SystemResetWarning,0825.9,5.02,000.00,023.9,023.0,000.0,032.5,025.7,16.5,0000.0,0004.74,0017.64,0003.19
2024-03-23 07:17:00,SystemResetWarning,0825.9,5.00,000.00,023.9,023.1,000.0,032.5,025.7,16.5,0000.0,0004.80,0017.80,0003.19
2024-03-23 07:18:00,SystemResetWarning,0825.9,4.98,000.00,023.9,023.1,000.0,032.5,025.7,16.5,0000.0,0004.81,0018.95,0003.20
2024-03-23 07:19:00,SystemResetWarning,0825.9,5.01,000.00,023.9,023.0,000.0,032.5,025.7,16.5,0000.0,0004.84,0018.99,0003.21
2024-03-23 07:20:00,SystemResetWarning,0825.9,5.02,000.00,023.8,023.0,000.0,032.5,025.7,16.5,0000.0,0004.84,0019.26,0003.20
2024-03-23 07:21:00,SystemResetWarning,0825.9,4.99,000.00,023.8,023.1,000.0,032.5,025.7,16.5,0000.0,0004.77,0018.40,0003.19
2024-03-23 07:22:00,SystemResetWarning,0825.9,4.99,000.00,023.8,023.0,000.0,032.5,025.7,16.5,0000.0,0004.70,0018.79,0003.19
2024-03-23 07:23:00,SystemResetWarning,0825.9,5.01,000.00,023.8,023.0,000.0,032.5,025.7,16.5,0000.0,0004.69,0019.89,0003.17
2024-03-23 07:24:00,SystemResetWarning,0825.9,5.01,000.00,023.8,023.0,000.0,032.5,025.7,16.5,0000.0,0004.69,0019.76,0003.16
2024-03-23 07:25:00,SystemResetWarning,0825.9,4.99,000.00,023.8,023.0,000.0,032.5,025.6,16.5,0000.0,0004.69,0019.36,0003.15
2024-03-23 07:26:00,SystemResetWarning,0825.9,4.99,000.00,023.8,023.0,000.0,032.5,025.6,16.5,0000.0,0004.72,0019.24,0003.15
2024-03-23 07:27:00,SystemResetWarning,0825.9,5.00,000.00,023.8,023.0,000.0,032.5,025.6,16.5,0000.0,0004.72,0019.21,0003.14
2024-03-23 07:28:00,SystemResetWarning,0825.9,5.02,000.00,023.8,023.0,000.0,032.5,025.6,16.5,0000.0,0004.68,0019.49,0003.14
2024-03-23 07:29:00,SystemResetWarning,0825.9,5.00,000.00,023.8,023.0,000.0,032.4,025.6,16.5,0000.0,0004.67,0018.47,0003.14
2024-03-23 07:30:00,SystemResetWarning,0825.9,5.00,000.00,023.8,023.0,000.0,032.4,025.6,16.5,0000.0,0004.62,0018.54,0003.12
2024-03-23 07:31:00,SystemResetWarning,0825.9,5.00,000.00,023.8,023.0,000.0,032.4,025.6,16.5,0000.0,0004.56,0017.88,0003.12
2024-03-23 07:32:00,SystemResetWarning,0825.8,5.00,000.00,023.8,023.0,000.0,032.4,025.6,16.5,0000.0,0004.55,0018.34,0003.12
2024-03-23 07:33:00,SystemResetWarning,0825.8,5.00,000.00,023.8,023.0,000.0,032.4,025.6,16.6,0000.0,0004.57,0017.62,0003.11
2024-03-23 07:34:00,SystemResetWarning,0825.8,5.01,000.00,023.8,023.0,000.0,032.4,025.6,16.5,0000.0,0004.54,0017.29,0003.10
2024-03-23 07:35:00,SystemResetWarning,0825.8,5.00,000.00,023.8,023.0,000.0,032.4,025.6,16.5,0000.0,0004.52,0017.42,0003.10
2024-03-23 07:36:00,SystemResetWarning,0825.8,4.99,000.00,023.8,023.0,000.0,032.4,025.6,16.6,0000.0,0004.50,0018.23,0003.11
2024-03-23 07:37:00,SystemResetWarning,0825.8,4.99,000.00,023.8,023.0,000.0,032.4,025.6,16.6,0000.0,0004.52,0019.71,0003.10
2024-03-23 07:38:00,SystemResetWarning,0825.8,5.00,000.00,023.7,023.0,000.0,032.4,025.6,16.6,0000.0,0004.55,0021.20,0003.11
2024-03-23 07:39:00,SystemResetWarning,0825.8,5.01,000.00,023.7,023.0,000.0,032.4,025.6,16.6,0000.0,0004.65,0022.60,0003.13
2024-03-23 07:40:00,SystemResetWarning,0825.8,5.01,000.00,023.7,023.0,000.0,032.4,025.6,16.6,0000.0,0004.67,0022.55,0003.13
2024-03-23 07:41:00,SystemResetWarning,0825.8,4.99,000.00,023.7,023.0,000.0,032.4,025.6,16.6,0000.0,0004.69,0022.49,0003.15
2024-03-23 07:42:00,SystemResetWarning,0825.8,4.99,000.00,023.7,023.0,000.0,032.4,025.6,16.3,0000.0,0004.75,0022.31,0003.17
2024-03-23 07:43:00,SystemResetWarning,0825.8,5.01,000.00,023.7,023.0,000.0,032.4,025.5,16.4,0000.0,0004.78,0021.72,0003.18
2024-03-23 07:44:00,SystemResetWarning,0825.8,5.01,000.00,023.7,022.9,000.0,032.4,025.5,16.4,0000.0,0004.80,0022.36,0003.19
2024-03-23 07:45:00,SystemResetWarning,0825.7,5.01,000.00,023.7,022.9,000.0,032.4,025.5,16.4,0000.0,0004.91,0022.19,0003.24
2024-03-23 07:46:00,SystemResetWarning,0825.7,4.98,000.00,023.7,022.9,000.0,032.3,025.5,16.4,0000.0,0005.01,0022.06,0003.29
2024-03-23 07:47:00,SystemResetWarning,0825.7,5.00,000.00,023.7,022.9,000.0,032.3,025.5,16.4,0000.0,0005.14,0021.14,0003.37
2024-03-23 07:48:00,SystemResetWarning,0825.6,5.01,000.00,023.7,022.9,000.0,032.3,025.5,16.6,0000.0,0005.17,0021.17,0003.43
2024-03-23 07:49:00,SystemResetWarning,0825.6,5.01,000.00,023.7,022.9,000.0,032.3,025.5,16.6,0000.0,0005.23,0020.26,0003.47
2024-03-23 07:50:00,SystemResetWarning,0825.6,5.00,000.00,023.7,022.9,000.0,032.3,025.5,16.7,0000.0,0005.17,0018.48,0003.52
2024-03-23 07:51:00,SystemResetWarning,0825.6,5.00,000.00,023.6,022.9,000.0,032.3,025.5,16.7,0000.0,0005.21,0019.07,0003.58
2024-03-23 07:52:00,SystemResetWarning,0825.6,5.00,000.00,023.6,022.9,000.0,032.3,025.5,16.6,0000.0,0005.29,0019.24,0003.64
2024-03-23 07:53:00,SystemResetWarning,0825.6,5.00,000.00,023.6,022.9,000.0,032.3,025.5,16.5,0000.0,0005.35,0019.38,0003.71
2024-03-23 07:54:00,SystemResetWarning,0825.6,5.00,000.00,023.6,022.9,000.0,032.3,025.5,16.6,0000.0,0005.42,0018.89,0003.76
2024-03-23 07:55:00,SystemResetWarning,0825.6,5.01,000.00,023.6,022.9,000.0,032.3,025.5,16.6,0000.0,0005.46,0018.59,0003.82
2024-03-23 07:56:00,SystemResetWarning,0825.6,5.01,000.00,023.6,022.9,000.0,032.3,025.5,16.3,0000.0,0005.50,0018.41,0003.88
2024-03-23 07:57:00,SystemResetWarning,0825.5,5.00,000.00,023.6,022.8,000.0,032.3,025.5,16.1,0000.0,0005.55,0018.24,0003.93
2024-03-23 07:58:00,SystemResetWarning,0825.4,5.00,000.00,023.6,022.8,000.0,032.3,025.5,16.3,0000.0,0005.53,0018.88,0003.95
2024-03-23 07:59:00,SystemResetWarning,0825.4,5.00,000.00,023.6,022.9,000.0,032.3,025.5,16.3,0000.0,0005.52,0017.86,0003.98
